User: anonymous   Login
Location: Melara
(45.0500°N, 11.1833°E)
Time: 21:01:49
(UTC+00:00)
Language:

NOAA 15 - Orbit

View from above orbital plane
View from above orbital plane
View from above satellite
View from above satellite

Ground track
Ground track

The orbit data is extracted from the following two-line orbital elements,

1 25338U 98030A   24148.54630558  .00000294  00000-0  13947-3 0  9998
2 25338  98.5695 176.1033 0010822  31.7074 328.4757 14.26586882354492
Epoch (UTC): 27 May 2024 13:06:40
Eccentricity: 0.0010822
inclination: 98.5695°
perigee height: 795 km
apogee height: 811 km
right ascension of ascending node: 176.1033°
argument of perigee: 31.7074°
revolutions per day: 14.26586882
mean anomaly at epoch: 328.4757°
orbit number at epoch: 35449

The dashed part of the orbit path shows where the satellite is in the earth's shadow,  

DLR